[[{"header":{"parameterUnit":"m.s-1","parameterCategory":1,"la1":30.2991,"la2":30.254,"lo1":-89.0895,"lo2":-89.0444,"dy":0.0017,"dx":0.0017,"nx":28,"ny":28,"refTime":"2025-08-01T21:00:00:Z","depth":0,"parameterNumber":2,"parameterNumberName":"U-component_of_WINDS"},"data":[0,0,0,0,0,0,0,0,0,0,0,0,0,0,0,0,0,0,0,0,0,0,0,0,0,0,0,0,0,0,0,0,0,0,0,0,0,0,0,0,0,0,0,0,0,0,0,0,0,0,0,0,0,0,0,0,0,0,1.6824,1.6825,0,1.6931,1.6932,1.6933,1.687,1.6867,1.6864,1.6861,1.6978,1.6984,1.699,0,0,0,0,0,0,0,0,0,0,0,0,0,1.6574,1.6578,1.6824,1.6825,1.6826,1.6931,1.6932,1.6934,1.6871,1.6867,1.6863,1.686,1.6976,1.6983,1.6991,0,0,0,0,0,0,0,0,0,0,0,0,0,1.6682,1.658,1.6824,1.6807,1.6807,1.693,1.6932,1.6934,1.6871,1.6867,1.6862,1.6858,1.6974,1.6983,1.6992,1.7139,0,0,1.7019,1.7023,0,0,0,0,0,0,0,0,1.6676,1.6691,1.6809,1.6809,1.6809,1.6882,1.6887,1.7003,1.6873,1.6847,1.6861,1.6856,1.6951,1.6961,1.6992,1.7144,1.7149,1.702,1.7025,1.7029,1.7032,0,0,0,0,0,0,0,1.6668,1.6686,1.6866,1.681,1.681,1.6798,1.6808,1.6908,1.6924,1.6849,1.6845,1.6858,1.695,1.6983,1.6994,1.7151,1.7019,1.7027,1.7033,1.7036,1.7433,1.7438,0,0,0,0,0,0,1.6661,1.668,1.6863,1.6869,1.6729,1.6806,1.6817,1.6863,1.6922,1.6927,1.6862,1.6855,1.697,1.6983,1.6998,1.7175,1.7029,1.7037,1.7042,1.7428,1.7434,1.744,0,0,0,0,0,0,1.6656,1.6678,1.6859,1.6774,1.6796,1.6815,1.6867,1.6868,1.6901,1.6932,1.6935,1.6892,1.6967,1.6985,1.7104,1.7179,1.7041,1.705,1.7422,1.743,1.7437,1.7531,0,0,0,0,0,0,1.6649,1.6676,1.673,1.6775,1.68,1.6961,1.6872,1.6873,1.6916,1.6907,1.6961,1.6966,1.6965,1.7091,1.7113,1.7188,1.7057,1.7415,1.7425,1.7435,1.7522,1.7541,1.7558,0,0,0,0,0,1.664,1.6754,1.6733,1.6756,1.6868,1.6965,1.698,1.6974,1.6922,1.6978,1.6998,1.6964,1.7167,1.7104,1.7128,1.7207,1.7411,1.7423,1.7434,1.7513,1.7537,1.7558,0,0,0,0,0,0,1.6719,1.6759,1.6737,1.6868,1.6914,1.6954,1.7024,1.6999,1.7062,1.7052,1.7044,1.7057,1.7182,1.7206,1.7136,1.7354,1.7281,1.7298,1.7333,1.7356,1.7374,1.7366,1.7064,0,0,0,0,0,1.6751,1.6824,1.6857,1.6969,1.6993,1.7005,1.7047,1.7039,1.7087,1.7106,1.7135,1.7185,1.726,1.7309,1.738,1.7525,1.7537,1.7592,1.761,1.7625,1.764,1.772,1.7746,1.7478,1.7478,1.7478,0,0,1.6819,1.6851,1.6897,1.6986,1.702,1.7099,1.7022,1.7108,1.7167,1.712,1.7234,1.7257,1.7313,1.7446,1.7506,1.747,1.7716,1.7639,1.7651,1.7658,1.7735,1.776,1.7783,1.7486,1.7484,1.7483,0,0,1.6984,1.7014,1.7111,1.7147,1.7199,1.7207,1.7231,1.7276,1.7289,1.7402,1.7369,1.7441,1.757,1.7611,1.7649,1.7831,1.7804,1.7855,1.795,1.8029,1.805,1.8069,1.8135,1.8159,1.787,1.787,1.787,0,1.7062,1.7176,1.7166,1.7254,1.7295,1.7255,1.7356,1.7392,1.7466,1.7496,1.7455,1.7616,1.7651,1.7794,1.7838,1.787,1.7899,1.7849,1.8048,1.8066,1.8084,1.8147,1.8172,1.7876,1.7875,1.7875,1.7874,0,1.7272,1.7352,1.7425,1.7495,1.7545,1.7639,1.7645,1.7698,1.7685,1.7698,1.7817,1.7856,1.7935,1.7969,1.7958,1.8112,1.8088,1.8047,1.7974,1.8115,1.8175,1.8199,1.7885,1.7882,1.7881,1.7879,0,0,1.7488,1.7551,1.7578,1.761,1.7666,1.7729,1.7823,1.7898,1.7944,1.7997,1.8077,1.8188,1.8151,1.8194,1.8189,1.8258,1.8402,1.8209,1.821,1.8244,1.8575,1.8606,1.8634,1.8383,1.8388,1.8392,1.8571,0,1.7656,1.7817,1.7811,1.7963,1.8038,1.8002,1.8084,1.8129,1.8145,1.8213,1.8231,1.831,1.8254,1.8281,1.8347,1.837,1.8468,1.8357,1.8461,1.8464,1.8448,1.8664,1.8697,1.8864,1.8594,1.8598,1.8601,0,1.7873,1.7932,1.8091,1.8136,1.8168,1.8242,1.8311,1.8376,1.8427,1.8434,1.8483,1.8467,1.8565,1.8489,1.8626,1.8551,1.8593,1.8611,1.8618,1.8627,1.8541,1.8681,1.8917,1.8942,1.8637,1.8634,1.8631,0,1.8017,1.8135,1.8246,1.8274,1.833,1.8383,1.841,1.8456,1.8502,1.8564,1.8594,1.8667,1.8708,1.8767,1.8772,1.8715,1.8911,1.8835,1.8922,1.8922,1.8965,1.8962,1.9211,1.8991,1.8991,1.899,1.899,0,1.8205,1.8305,1.8311,1.8379,1.849,1.8484,1.8595,1.8616,1.8658,1.8732,1.8706,1.8777,1.8779,1.8853,1.8858,1.8972,1.899,1.9,1.9001,1.9003,1.9002,1.9031,1.902,1.8997,1.8996,1.8994,1.8993,0,1.8384,1.8392,1.851,1.8553,1.8567,1.8647,1.8685,1.8752,1.8765,1.8859,1.8881,1.8903,1.8988,1.8999,1.9099,1.9102,1.924,1.9228,1.9222,1.922,1.9307,1.9299,1.9584,1.9622,1.9377,1.9379,1.9381,0,1.8504,1.8579,1.863,1.8676,1.8705,1.8781,1.8827,1.8825,1.8875,1.894,1.9,1.9082,1.9147,1.9286,1.9312,1.9389,1.9379,1.9474,1.9391,1.9391,1.9382,1.9378,1.9386,1.949,1.9493,1.9495,1.9497,0,1.8717,1.8717,1.8784,1.8853,1.8909,1.8964,1.9016,1.9056,1.9061,1.9119,1.9205,1.9255,1.9357,1.944,1.9516,1.9546,1.9524,1.9523,1.9547,1.955,1.9544,1.955,1.9267,1.9516,1.9514,1.9513,1.9512,1.9511,1.8871,1.8936,1.8982,1.9058,1.9097,1.9146,1.9211,1.9232,1.9302,1.9383,1.9378,1.9473,1.9526,1.9625,1.9661,1.9737,1.9706,1.9742,1.9751,1.9759,1.9768,1.9532,1.9751,1.9751,1.975,1.975,1.9749,0,1.9083,1.9111,1.9181,1.9253,1.9314,1.9285,1.9341,1.9395,1.9478,1.9527,1.9591,1.9691,1.9772,1.9805,1.9885,1.994,1.9932,1.9961,1.9957,1.9965,1.9791,1.9762,1.9966,1.9966,1.9966,1.9966,1.9966,1.9966,1.9201,1.931,1.9317,1.9447,1.9475,1.9566,1.9601,1.9647,1.9686,1.9798,1.9864,1.9884,1.9928,2.0011,2.0085,2.0093,2.0124,2.0158,2.0162,1.9999,1.9977,1.9956,1.9929,2.0165,2.0165,2.0329,2.0331,2.0332]},{"header":{"parameterUnit":"m.s-1","parameterCategory":1,"la1":30.2991,"la2":30.254,"lo1":-89.0895,"lo2":-89.0444,"dy":0.0017,"dx":0.0017,"nx":28,"ny":28,"refTime":"2025-08-01T21:00:00:Z","depth":0,"parameterNumber":3,"parameterNumberName":"V-component_of_WINDS"},"data":[0,0,0,0,0,0,0,0,0,0,0,0,0,0,0,0,0,0,0,0,0,0,0,0,0,0,0,0,0,0,0,0,0,0,0,0,0,0,0,0,0,0,0,0,0,0,0,0,0,0,0,0,0,0,0,0,0,0,-0.9658,-0.9657,0,-0.9566,-0.9565,-0.9564,-0.9546,-0.9547,-0.9548,-0.9548,-0.9449,-0.9446,-0.9443,0,0,0,0,0,0,0,0,0,0,0,0,0,-0.9814,-0.9811,-0.9658,-0.9657,-0.9656,-0.9566,-0.9565,-0.9564,-0.9546,-0.9547,-0.9548,-0.9549,-0.945,-0.9446,-0.9442,0,0,0,0,0,0,0,0,0,0,0,0,0,-0.9736,-0.981,-0.9658,-0.9636,-0.9633,-0.9566,-0.9565,-0.9563,-0.9546,-0.9547,-0.9548,-0.9549,-0.9452,-0.9447,-0.9442,-0.9389,0,0,-0.9427,-0.9424,0,0,0,0,0,0,0,0,-0.9741,-0.9731,-0.9641,-0.9638,-0.9634,-0.9569,-0.9583,-0.9504,-0.9546,-0.9579,-0.9548,-0.955,-0.9488,-0.948,-0.946,-0.9384,-0.938,-0.9426,-0.9423,-0.9421,-0.942,0,0,0,0,0,0,0,-0.9746,-0.9734,-0.9621,-0.9639,-0.9635,-0.963,-0.962,-0.9568,-0.9528,-0.9576,-0.9575,-0.9564,-0.9486,-0.9465,-0.9458,-0.9378,-0.9426,-0.9422,-0.9419,-0.9417,-0.9254,-0.9253,0,0,0,0,0,0,-0.9756,-0.9739,-0.9624,-0.9619,-0.9692,-0.9626,-0.9615,-0.9589,-0.9529,-0.9521,-0.9563,-0.9564,-0.9473,-0.9463,-0.9454,-0.9388,-0.9421,-0.9416,-0.9413,-0.9255,-0.9254,-0.9252,0,0,0,0,0,0,-0.976,-0.9746,-0.9628,-0.9678,-0.9663,-0.9622,-0.9593,-0.9586,-0.9565,-0.9519,-0.9511,-0.9549,-0.9473,-0.9461,-0.9405,-0.9384,-0.9414,-0.941,-0.9257,-0.9255,-0.9253,-0.9255,0,0,0,0,0,0,-0.9764,-0.9747,-0.9728,-0.9678,-0.966,-0.9582,-0.9591,-0.9584,-0.9557,-0.9556,-0.9504,-0.9496,-0.9473,-0.9413,-0.94,-0.9378,-0.9406,-0.9258,-0.9256,-0.9254,-0.9256,-0.9253,-0.925,0,0,0,0,0,-0.977,-0.9731,-0.9727,-0.9713,-0.9635,-0.9581,-0.9571,-0.9547,-0.9555,-0.9534,-0.9505,-0.9498,-0.9389,-0.9407,-0.9393,-0.9369,-0.926,-0.9257,-0.9254,-0.9258,-0.9254,-0.925,0,0,0,0,0,0,-0.9777,-0.9724,-0.9719,-0.9663,-0.9627,-0.9578,-0.9551,-0.9543,-0.9502,-0.9504,-0.9474,-0.9462,-0.9408,-0.9383,-0.9405,-0.9314,-0.9324,-0.9319,-0.9332,-0.9328,-0.9325,-0.9332,-0.9401,0,0,0,0,0,-0.9773,-0.9735,-0.969,-0.9645,-0.9627,-0.9592,-0.9568,-0.9553,-0.9513,-0.9497,-0.9464,-0.9425,-0.9381,-0.9354,-0.9311,-0.9253,-0.9241,-0.9229,-0.9226,-0.9224,-0.9218,-0.9185,-0.918,-0.9242,-0.9242,-0.9242,0,0,-0.9762,-0.9728,-0.9706,-0.9645,-0.9615,-0.9575,-0.9579,-0.9537,-0.9506,-0.949,-0.9436,-0.941,-0.9364,-0.9307,-0.928,-0.9284,-0.9199,-0.922,-0.9218,-0.9214,-0.9182,-0.9176,-0.9171,-0.924,-0.9241,-0.9241,0,0,-0.9723,-0.9694,-0.9653,-0.9624,-0.9579,-0.9557,-0.9547,-0.9499,-0.9482,-0.9428,-0.9415,-0.9378,-0.9304,-0.9272,-0.9246,-0.9196,-0.9187,-0.9182,-0.9166,-0.9134,-0.9129,-0.9125,-0.9106,-0.91,-0.9178,-0.9178,-0.9178,0,-0.9715,-0.9655,-0.9633,-0.9591,-0.9564,-0.955,-0.9508,-0.948,-0.9423,-0.9405,-0.941,-0.9318,-0.9286,-0.9221,-0.9209,-0.9189,-0.9176,-0.9188,-0.9132,-0.9127,-0.9123,-0.9104,-0.9098,-0.9177,-0.9177,-0.9177,-0.9177,0,-0.9648,-0.9607,-0.9579,-0.9527,-0.9497,-0.9455,-0.9425,-0.9397,-0.9385,-0.9362,-0.9306,-0.9268,-0.9217,-0.9201,-0.9188,-0.9134,-0.9138,-0.9138,-0.9148,-0.9117,-0.9099,-0.9092,-0.9177,-0.9177,-0.9177,-0.9177,0,0,-0.9609,-0.9546,-0.9536,-0.9512,-0.9462,-0.9429,-0.9387,-0.9339,-0.9316,-0.9277,-0.924,-0.9179,-0.9179,-0.915,-0.9133,-0.9105,-0.9067,-0.9108,-0.9107,-0.9102,-0.9005,-0.9004,-0.8997,-0.9061,-0.906,-0.9059,-0.9008,0,-0.9563,-0.9488,-0.9467,-0.9403,-0.9365,-0.9351,-0.9314,-0.9278,-0.9255,-0.9218,-0.9192,-0.9149,-0.9153,-0.9135,-0.9107,-0.9078,-0.9047,-0.9081,-0.9025,-0.9023,-0.9036,-0.8988,-0.8987,-0.8941,-0.9002,-0.9,-0.8999,0,-0.9499,-0.9462,-0.9395,-0.935,-0.9333,-0.93,-0.9255,-0.922,-0.918,-0.9165,-0.9133,-0.9119,-0.9072,-0.9086,-0.9021,-0.9045,-0.902,-0.9003,-0.9,-0.8993,-0.9009,-0.8979,-0.8926,-0.8919,-0.8989,-0.8989,-0.899,0,-0.9478,-0.941,-0.9361,-0.9341,-0.9288,-0.9265,-0.9242,-0.9202,-0.9175,-0.9136,-0.9118,-0.9072,-0.9047,-0.9012,-0.8986,-0.8998,-0.8923,-0.8934,-0.8908,-0.8909,-0.8892,-0.8894,-0.8834,-0.8878,-0.8878,-0.8878,-0.8879,0,-0.9428,-0.9387,-0.9351,-0.932,-0.9274,-0.925,-0.9204,-0.918,-0.9145,-0.9109,-0.9094,-0.906,-0.9028,-0.8989,-0.8968,-0.8917,-0.8906,-0.8892,-0.8887,-0.8893,-0.8895,-0.8876,-0.8878,-0.8876,-0.8877,-0.8877,-0.8878,0,-0.9395,-0.9369,-0.9315,-0.927,-0.9258,-0.9226,-0.9186,-0.9156,-0.9133,-0.9087,-0.9075,-0.9038,-0.8992,-0.8963,-0.8904,-0.889,-0.8834,-0.883,-0.8848,-0.8845,-0.8821,-0.8824,-0.8747,-0.8736,-0.8788,-0.8787,-0.8787,0,-0.9365,-0.9334,-0.9286,-0.9262,-0.9239,-0.9199,-0.9172,-0.9147,-0.9119,-0.9071,-0.9046,-0.8999,-0.8961,-0.8888,-0.8855,-0.8809,-0.8804,-0.878,-0.8797,-0.8804,-0.8803,-0.8805,-0.8801,-0.8777,-0.8777,-0.8776,-0.8776,0,-0.9314,-0.9303,-0.9266,-0.9223,-0.9192,-0.9157,-0.9122,-0.9102,-0.9071,-0.904,-0.8994,-0.8964,-0.8905,-0.8858,-0.881,-0.8785,-0.8774,-0.8771,-0.8763,-0.8768,-0.878,-0.8773,-0.884,-0.8773,-0.8773,-0.8773,-0.8774,-0.8774,-0.9281,-0.9253,-0.9215,-0.9174,-0.9145,-0.9113,-0.9082,-0.9056,-0.9018,-0.8969,-0.8956,-0.8907,-0.8867,-0.8802,-0.8775,-0.8736,-0.8739,-0.8727,-0.8723,-0.8721,-0.872,-0.8787,-0.8727,-0.8727,-0.8727,-0.8727,-0.8727,0,-0.9229,-0.9205,-0.9167,-0.9119,-0.9086,-0.9082,-0.9043,-0.9016,-0.8974,-0.8938,-0.8901,-0.8847,-0.8803,-0.8767,-0.872,-0.8696,-0.869,-0.8684,-0.8685,-0.868,-0.872,-0.8732,-0.869,-0.869,-0.869,-0.869,-0.869,-0.869,-0.9198,-0.915,-0.9134,-0.9071,-0.9046,-0.9,-0.8978,-0.8948,-0.892,-0.8861,-0.8825,-0.8802,-0.8766,-0.8717,-0.8676,-0.8666,-0.8649,-0.8645,-0.8634,-0.8673,-0.8677,-0.8681,-0.8692,-0.8641,-0.8641,-0.8596,-0.8596,-0.8596]}]]